Location: Noordwijk
(52.2400°N, 4.4500°E)
Time: 06:12:38
(UTC+00:00)

AO-7 - Visible Passes

Search period start: 07 December 2022 00:00
Search period end: 17 December 2022 00:00
Orbit: 1439 x 1459 km, 101.9° (Epoch: 06 December)

Date Brightness Start Highest point End Pass type
(mag) Time Alt. Az. Time Alt. Az. Time Alt. Az.
07 Dec ? 02:51:12 10° NE 02:57:02 20° E 03:02:50 10° SE visible
07 Dec ? 04:42:48 10° NNE 04:51:10 77° ESE 04:59:29 10° SSW visible
07 Dec ? 06:36:02 10° NNE 06:43:20 36° NW 06:50:40 10° WSW visible
07 Dec ? 17:48:51 10° W 17:51:23 11° W 17:53:55 10° WNW visible
08 Dec ? 03:43:06 10° NNE 03:50:48 39° E 03:58:26 10° SSE visible
08 Dec ? 05:35:48 10° NNE 05:43:58 64° WNW 05:52:09 10° SW visible
08 Dec ? 16:43:16 10° SSW 16:50:03 27° W 16:56:54 10° NW visible
09 Dec ? 02:44:23 10° NE 02:49:49 18° E 02:55:12 10° SE visible
09 Dec ? 04:35:45 10° NNE 04:44:05 71° ESE 04:52:23 10° SSW visible
09 Dec ? 06:28:56 10° NNE 06:36:23 39° NW 06:43:50 10° WSW visible
09 Dec ? 17:40:36 10° WSW 17:44:07 13° W 17:47:39 10° NW visible
10 Dec ? 03:36:07 10° NNE 03:43:39 36° E 03:51:08 10° SSE visible
10 Dec ? 05:28:43 10° NNE 05:36:57 69° WNW 05:45:10 10° SW visible
10 Dec ? 16:35:50 10° SSW 16:42:53 30° W 16:49:58 10° NW visible
11 Dec ? 02:37:39 10° NE 02:42:35 17° E 02:47:30 10° ESE visible
11 Dec ? 04:28:42 10° NNE 04:37:00 66° ESE 04:45:15 10° S visible
11 Dec ? 06:21:50 10° NNE 06:29:24 41° NW 06:37:00 10° WSW visible
11 Dec ? 17:32:38 10° WSW 17:36:52 15° W 17:41:08 10° NW visible
12 Dec ? 03:29:09 10° NNE 03:36:29 33° E 03:43:48 10° SSE visible
12 Dec ? 05:21:38 10° NNE 05:29:55 74° WNW 05:38:12 10° SW visible
12 Dec ? 16:28:28 10° SSW 16:35:42 33° W 16:43:01 10° NNW visible
13 Dec ? 02:30:59 10° NE 02:35:21 15° E 02:39:41 10° ESE visible
13 Dec ? 04:21:39 10° NNE 04:29:54 61° ESE 04:38:07 10° S visible
13 Dec ? 06:14:44 10° NNE 06:22:27 44° NW 06:30:08 10° WSW visible
13 Dec ? 17:24:48 10° WSW 17:29:38 16° W 17:34:29 10° NW visible
14 Dec ? 03:22:11 10° NNE 03:29:20 30° E 03:36:25 10° SSE visible
14 Dec ? 05:14:33 10° NNE 05:22:53 79° WNW 05:31:12 10° SSW visible
14 Dec ? 16:21:07 10° SSW 16:28:33 36° W 16:36:03 10° NNW visible
15 Dec ? 02:24:26 10° NE 02:28:05 13° E 02:31:44 10° ESE visible
15 Dec ? 04:14:37 10° NNE 04:22:48 56° ESE 04:30:57 10° S visible
15 Dec ? 06:07:38 10° NNE 06:15:27 48° NW 06:23:16 10° SW visible
15 Dec ? 17:17:04 10° SW 17:22:24 18° W 17:27:44 10° NW visible
16 Dec ? 03:15:15 10° NE 03:22:09 28° E 03:29:01 10° SSE visible
16 Dec ? 05:07:28 10° NNE 05:15:51 85° WNW 05:24:11 10° SSW visible
16 Dec ? 07:00:50 10° NNE 07:07:38 30° NW 07:14:26 10° W visible
16 Dec ? 16:13:48 10° SSW 16:21:24 39° W 16:29:03 10° NNW visible
